Location: Lawrence
(38.9720°N, 95.2350°W)
Time: 20:32:43
(UTC-05:00)

Amateur Radio Satellites - All Passes

Search period start: 22 August 2014 20:02
Search period end: 23 August 2014 20:02
Location: Lawrence, 38.9720°N, 95.2350°W

Satellite Date Start Highest point End Downlink Frequencies (MHz)
Time Altitude Azimuth
STRAND 1 22 Aug 20:05:41 20:10:47 70° 102° (ESE) 20:15:51 ?
PCSat 22 Aug 20:08:37 20:13:49 48° 303° (WNW) 20:19:04 145.825 MHz
JAS-2 22 Aug 20:34:39 20:36:31 11° 270° (W) 20:38:20 435.800 - 435.900 CW/SSB, 435.910 FM
SO-67 22 Aug 20:42:46 20:44:53 15° 267° (W) 20:47:01 435.3500 MHz FM
HO-68 22 Aug 20:49:30 20:56:10 45° 66° (ENE) 21:02:52 435.675 MHz FM
ISS 22 Aug 20:54:39 20:57:59 69° 37° (NE) 21:01:18 145.800 FM
UKube-1 22 Aug 21:06:04 21:09:28 23° 67° (ENE) 21:12:53 145.840 MHz, 145.915 MHz
Oscar 11 22 Aug 21:21:57 21:25:02 19° 67° (ENE) 21:28:07 145.825 FM, Beacon 2401.500 USB
Sapphire 22 Aug 21:24:21 21:27:26 15° 316° (NW) 21:30:33 437.095 MHz 1200 baud AX-25 AFSK
STRAND 1 22 Aug 21:46:45 21:49:22 14° 298° (WNW) 21:51:58 ?
RS-15 22 Aug 22:05:36 22:08:31 11° 264° (W) 22:11:27 29.354 - 29.394 USB, Beacon 29.352 USB
AO-40 22 Aug 22:12:06 02:12:31 38° 188° (S) 07:38:55 Beacon 2401.320
ISS 22 Aug 22:33:05 22:34:18 12° 232° (SW) 22:35:31 145.800 FM
HO-68 22 Aug 22:37:38 22:43:57 33° 263° (W) 22:50:17 435.675 MHz FM
UKube-1 22 Aug 22:41:41 22:45:30 30° 263° (W) 22:49:21 145.840 MHz, 145.915 MHz
Oscar 11 22 Aug 22:57:00 23:00:57 35° 263° (W) 23:04:57 145.825 FM, Beacon 2401.500 USB
FUNcube-1 22 Aug 22:58:09 23:02:18 85° 77° (ENE) 23:06:30 145.950 - 145.970 MHz USB
Saudisat 1A 23 Aug 00:37:37 00:41:16 26° 113° (ESE) 00:44:57 436.775 MHz
MaSat-1 23 Aug 01:06:13 01:10:56 50° 61° (ENE) 01:15:03 437.345 MHz
KITSAT 1 23 Aug 01:28:47 01:36:43 63° 114° (ESE) 01:44:41 435.175 FM
Oscar 10/S400 23 Aug 01:43:55 21:13:27 60° 162° (SSE) 05:01:44 145.825 - 145.975 CW/USB, Beacon 145.810 USB
Oscar 19 23 Aug 01:58:46 02:02:38 21° 93° (E) 02:06:27 437.125 CW, 437.150 USB
ITAMSAT 1 23 Aug 02:13:27 02:14:56 11° 90° (E) 02:16:26 435.822 SSB
Saudisat 1A 23 Aug 02:16:47 02:20:44 31° 309° (NW) 02:24:42 436.775 MHz
Uribyol 2 23 Aug 02:24:11 02:27:23 16° 92° (E) 02:30:34 436.500 FM
Oscar 16 23 Aug 02:31:15 02:36:14 45° 99° (E) 02:41:11 437.025 USB, Beacon 2401.1428
AO-27 23 Aug 02:38:03 02:41:59 22° 94° (E) 02:45:53 436.795 MHz FM
MaSat-1 23 Aug 02:44:50 02:47:23 15° 261° (W) 02:49:45 437.345 MHz
JAS-1B 23 Aug 03:04:20 03:10:47 34° 93° (E) 03:16:20 435.800 - 435.900 CW/SSB
TMSAT-1 23 Aug 03:15:07 03:18:09 15° 91° (E) 03:21:10 436.925 FM
PCSat 23 Aug 03:15:24 03:18:54 17° 45° (NE) 03:22:23 145.825 MHz
KITSAT 1 23 Aug 03:25:32 03:32:36 32° 314° (NW) 03:39:42 435.175 FM
AO-Echo 23 Aug 03:33:33 03:38:18 84° 103° (ESE) 03:42:59 ?
Oscar 19 23 Aug 03:37:13 03:42:09 45° 289° (WNW) 03:47:03 437.125 CW, 437.150 USB
ITAMSAT 1 23 Aug 03:49:48 03:54:59 78° 285° (WNW) 04:00:09 435.822 SSB
Gurwin Techsat 1B 23 Aug 03:56:01 04:01:13 53° 100° (E) 04:06:23 435.225 FM
Uribyol 2 23 Aug 04:02:07 04:07:11 56° 288° (WNW) 04:12:14 436.500 FM
Oscar 16 23 Aug 04:11:22 04:15:15 22° 295° (WNW) 04:19:09 437.025 USB, Beacon 2401.1428
OPAL 23 Aug 04:12:13 04:16:48 38° 67° (ENE) 04:21:28 ?
AO-27 23 Aug 04:16:46 04:21:39 43° 290° (WNW) 04:26:30 436.795 MHz FM
Uosat F 23 Aug 04:19:45 04:20:31 10° 90° (E) 04:21:17 435.120 FM
Sapphire 23 Aug 04:27:07 04:32:28 54° 58° (ENE) 04:37:45 437.095 MHz 1200 baud AX-25 AFSK
TMSAT-1 23 Aug 04:53:14 04:58:28 62° 287° (WNW) 05:03:40 436.925 FM
JAS-1B 23 Aug 04:54:46 05:01:27 38° 296° (WNW) 05:07:10 435.800 - 435.900 CW/SSB
PCSat 23 Aug 04:57:31 05:02:57 78° 244° (WSW) 05:08:21 145.825 MHz
AO-7 23 Aug 05:09:25 05:17:11 43° 100° (E) 05:24:53 29.400 - 29.500 MHz
KITSAT 1 23 Aug 05:30:07 05:31:08 10° 341° (NNW) 05:32:09 435.175 FM
Gurwin Techsat 1B 23 Aug 05:37:06 05:40:45 19° 296° (WNW) 05:44:23 435.225 FM
STRAND 1 23 Aug 05:46:07 05:47:08 11° 59° (ENE) 05:48:09 ?
OPAL 23 Aug 05:51:46 05:55:46 24° 263° (W) 05:59:49 ?
Uosat F 23 Aug 05:54:50 05:59:51 79° 285° (WNW) 06:04:50 435.120 FM
Hamsat 23 Aug 06:11:37 06:13:48 14° 91° (E) 06:15:59 145.90 MHz
Sapphire 23 Aug 06:11:39 06:15:25 19° 255° (WSW) 06:19:10 437.095 MHz 1200 baud AX-25 AFSK
SO-50 23 Aug 06:15:16 06:19:40 67° 119° (ESE) 06:24:12 436.795 FM
AO-7 23 Aug 07:02:16 07:09:53 42° 298° (WNW) 07:17:29 29.400 - 29.500 MHz
STRAND 1 23 Aug 07:20:24 07:25:31 88° 76° (ENE) 07:30:39 ?
UOSAT-12 23 Aug 07:22:30 07:26:12 24° 111° (ESE) 07:29:58 437.025 FM, 437.400 FM
JAS-2 23 Aug 07:39:34 07:44:45 85° 284° (WNW) 07:50:08 435.800 - 435.900 CW/SSB, 435.910 FM
Hamsat 23 Aug 07:45:48 07:50:02 49° 286° (WNW) 07:54:12 145.90 MHz
SO-50 23 Aug 07:57:53 08:00:42 16° 317° (NW) 08:03:34 436.795 FM
RS-15 23 Aug 08:00:50 08:08:38 23° 101° (ESE) 08:16:16 29.354 - 29.394 USB, Beacon 29.352 USB
SO-67 23 Aug 08:06:20 08:09:35 36° 98° (E) 08:12:47 435.3500 MHz FM
UOSAT-12 23 Aug 09:01:52 09:06:08 36° 308° (NW) 09:10:30 437.025 FM, 437.400 FM
Saudisat 1A 23 Aug 09:05:28 09:08:31 18° 45° (NE) 09:11:34 436.775 MHz
KITSAT 1 23 Aug 09:23:43 09:30:22 27° 43° (NE) 09:36:59 435.175 FM
SO-67 23 Aug 09:40:59 09:42:16 12° 293° (WNW) 09:43:33 435.3500 MHz FM
HO-68 23 Aug 10:05:32 10:12:28 51° 101° (E) 10:19:23 435.675 MHz FM
RS-15 23 Aug 10:08:24 10:19:33 86° 301° (WNW) 10:30:32 29.354 - 29.394 USB, Beacon 29.352 USB
UKube-1 23 Aug 10:30:35 10:34:47 48° 100° (E) 10:38:58 145.840 MHz, 145.915 MHz
Saudisat 1A 23 Aug 10:44:07 10:48:25 54° 243° (WSW) 10:52:42 436.775 MHz
Oscar 11 23 Aug 10:45:29 10:49:40 43° 99° (E) 10:53:49 145.825 FM, Beacon 2401.500 USB
FUNcube-1 23 Aug 10:49:06 10:52:16 19° 94° (E) 10:55:27 145.950 - 145.970 MHz USB
KITSAT 1 23 Aug 11:18:30 11:26:35 77° 244° (WSW) 11:34:36 435.175 FM
HO-68 23 Aug 11:53:49 11:59:49 30° 298° (WNW) 12:05:50 435.675 MHz FM
UKube-1 23 Aug 12:08:07 12:10:35 15° 296° (WNW) 12:13:02 145.840 MHz, 145.915 MHz
Oscar 11 23 Aug 12:22:46 12:25:29 16° 294° (WNW) 12:28:11 145.825 FM, Beacon 2401.500 USB
FUNcube-1 23 Aug 12:24:38 12:28:45 38° 288° (WNW) 12:32:55 145.950 - 145.970 MHz USB
RS-15 23 Aug 12:24:39 12:33:39 28° 327° (NNW) 12:42:41 29.354 - 29.394 USB, Beacon 29.352 USB
AO-Echo 23 Aug 13:10:26 13:11:59 11° 61° (ENE) 13:13:31 ?
Oscar 19 23 Aug 13:14:30 13:18:46 27° 67° (ENE) 13:23:04 437.125 CW, 437.150 USB
KITSAT 1 23 Aug 13:17:20 13:20:37 13° 261° (W) 13:23:54 435.175 FM
ITAMSAT 1 23 Aug 13:29:35 13:32:51 17° 63° (ENE) 13:36:07 435.822 SSB
ISS 23 Aug 13:36:17 13:39:27 42° 136° (SE) 13:42:37 145.800 FM
Uribyol 2 23 Aug 13:40:50 13:44:49 23° 65° (ENE) 13:48:48 436.500 FM
JAS-1B 23 Aug 13:44:27 13:53:08 37° 63° (ENE) 14:01:18 435.800 - 435.900 CW/SSB
Oscar 16 23 Aug 13:47:00 13:52:01 57° 73° (ENE) 13:57:05 437.025 USB, Beacon 2401.1428
AO-27 23 Aug 13:55:00 13:59:27 30° 68° (ENE) 14:03:55 436.795 MHz FM
AO-7 23 Aug 14:22:08 14:23:58 11° 44° (NE) 14:25:48 29.400 - 29.500 MHz
TMSAT-1 23 Aug 14:34:30 14:38:32 23° 65° (ENE) 14:42:33 436.925 FM
AO-Echo 23 Aug 14:44:52 14:50:03 86° 257° (WSW) 14:55:07 ?
RS-15 23 Aug 14:45:00 14:51:26 17° 3° (N) 14:57:55 29.354 - 29.394 USB, Beacon 29.352 USB
SO-50 23 Aug 14:47:56 14:52:31 44° 53° (NE) 14:57:09 436.795 FM
Oscar 19 23 Aug 14:53:18 14:57:56 34° 263° (W) 15:02:38 437.125 CW, 437.150 USB
MaSat-1 23 Aug 14:53:39 14:57:39 29° 104° (ESE) 15:01:59 437.345 MHz
ITAMSAT 1 23 Aug 15:06:46 15:11:51 58° 259° (W) 15:16:58 435.822 SSB
ISS 23 Aug 15:13:31 15:16:17 24° 333° (NNW) 15:19:04 145.800 FM
Gurwin Techsat 1B 23 Aug 15:15:53 15:21:10 75° 75° (ENE) 15:26:29 435.225 FM
Uribyol 2 23 Aug 15:19:10 15:24:01 41° 261° (W) 15:28:53 436.500 FM
Oscar 16 23 Aug 15:28:41 15:31:44 16° 268° (W) 15:34:47 437.025 USB, Beacon 2401.1428
Uosat F 23 Aug 15:30:57 15:33:40 15° 62° (ENE) 15:36:24 435.120 FM
JAS-1B 23 Aug 15:33:21 15:43:06 61° 260° (W) 15:52:25 435.800 - 435.900 CW/SSB
AO-27 23 Aug 15:34:18 15:38:52 31° 263° (W) 15:43:28 436.795 MHz FM
UOSAT-12 23 Aug 15:53:01 15:56:24 19° 44° (NE) 15:59:44 437.025 FM, 437.400 FM
AO-7 23 Aug 16:06:51 16:14:50 53° 65° (ENE) 16:22:49 29.400 - 29.500 MHz
TMSAT-1 23 Aug 16:13:06 16:18:08 44° 261° (W) 16:23:11 436.925 FM
PANSAT 23 Aug 16:18:14 16:19:58 13° 168° (SSE) 16:21:43 not established
OPAL 23 Aug 16:26:15 16:27:11 10° 91° (E) 16:28:08 ?
SO-50 23 Aug 16:29:11 16:32:48 21° 249° (WSW) 16:36:26 436.795 FM
MaSat-1 23 Aug 16:30:18 16:34:38 33° 303° (WNW) 16:39:17 437.345 MHz
ISS 23 Aug 16:53:45 16:53:58 10° 353° (N) 16:54:11 145.800 FM
RS-15 23 Aug 16:59:13 17:08:49 32° 38° (NE) 17:18:38 29.354 - 29.394 USB, Beacon 29.352 USB
Gurwin Techsat 1B 23 Aug 16:59:32 17:01:40 12° 270° (W) 17:03:48 435.225 FM
Uosat F 23 Aug 17:06:55 17:11:54 65° 258° (WSW) 17:16:53 435.120 FM
UOSAT-12 23 Aug 17:32:17 17:36:55 58° 242° (WSW) 17:41:29 437.025 FM, 437.400 FM
JAS-1B 23 Aug 17:32:40 17:35:01 11° 276° (W) 17:37:20 435.800 - 435.900 CW/SSB
JAS-2 23 Aug 17:50:09 17:56:06 37° 70° (ENE) 18:01:27 435.800 - 435.900 CW/SSB, 435.910 FM
PANSAT 23 Aug 17:56:56 17:59:29 17° 180° (S) 18:02:02 not established
PCSat 23 Aug 17:57:16 18:00:25 16° 104° (ESE) 18:03:33 145.825 MHz
AO-7 23 Aug 18:00:28 18:07:48 34° 263° (W) 18:15:11 29.400 - 29.500 MHz
OPAL 23 Aug 18:01:24 18:06:39 85° 287° (WNW) 18:11:52 ?
ISS 23 Aug 18:30:32 18:31:56 12° 14° (NNE) 18:33:19 145.800 FM
Hamsat 23 Aug 18:37:30 18:41:46 82° 258° (WSW) 18:46:07 145.90 MHz
SO-67 23 Aug 18:40:26 18:41:31 11° 67° (ENE) 18:42:36 435.3500 MHz FM
Sapphire 23 Aug 19:07:32 19:12:51 65° 114° (ESE) 19:18:14 437.095 MHz 1200 baud AX-25 AFSK
RS-15 23 Aug 19:11:20 19:22:27 82° 242° (WSW) 19:34:02 29.354 - 29.394 USB, Beacon 29.352 USB
STRAND 1 23 Aug 19:32:37 19:37:11 32° 97° (E) 19:41:43 ?
JAS-2 23 Aug 19:35:10 19:41:08 34° 262° (W) 19:46:32 435.800 - 435.900 CW/SSB, 435.910 FM
PANSAT 23 Aug 19:37:22 19:38:59 12° 193° (SSW) 19:40:36 not established
PCSat 23 Aug 19:37:51 19:43:13 65° 300° (WNW) 19:48:37 145.825 MHz
OPAL 23 Aug 19:43:16 19:44:42 11° 303° (WNW) 19:46:08 ?
